FW7705 Weather Reports


Display with metric or nautical units.
time (UTC)temp
F
wind
direction
speed
MPH
gust
MPH
rain 1hr
in
rain 24hr
in
rain mn
in
humidity
%
barometer
mb
20260508080656 39 69 1.0 2.0 0.00 0.00 0.00 80 1010.3
20260508080154 39 39 2.0 2.0 0.00 0.00 0.00 80 1010.4
20260508075650 39 37 2.0 2.0 0.00 0.00 0.00 79 1010.7
20260508075148 40 8 2.0 3.0 0.00 0.00 0.00 77 1010.5
20260508074645 40 329 3.0 3.0 0.00 0.00 0.00 77 1010.3
20260508074142 41 330 1.0 1.0 0.00 0.00 0.00 77 1010.3
20260508073639 41 264 3.0 4.0 0.00 0.00 0.00 78 1010.5
20260508073137 41 266 3.0 3.0 0.00 0.00 0.00 78 1010.4
20260508072632 41 232 1.0 2.0 0.00 0.00 0.00 80 1010.5
20260508072130 41 182 2.0 2.0 0.00 0.00 0.00 80 1010.7
20260508071627 41 235 5.0 6.0 0.00 0.00 0.00 79 1010.3
20260508071125 40 233 3.0 3.0 0.00 0.00 0.00 80 1010.3
20260508070622 40 177 1.0 1.0 0.00 0.00 0.00 82 1010.4
20260508070121 40 184 1.0 1.0 0.00 0.00 0.00 83 1010.4
20260508065618 39 194 0.0 0.0 0.00 0.00 0.00 86 1010.4
20260508065115 39 109 0.0 0.0 0.00 0.00 0.00 90 1010.4
20260508064613 39 109 0.0 0.0 0.00 0.00 0.00 89 1010.4
20260508064111 39 109 0.0 0.0 0.00 0.00 0.00 89 1010.1
20260508063608 39 109 0.0 0.0 0.00 0.00 0.00 88 1010.0
20260508063106 39 110 2.0 2.0 0.00 0.00 0.00 87 1010.1
20260508062603 39 109 0.0 0.0 0.00 0.00 0.00 85 1010.0
20260508062100 39 109 0.0 0.0 0.00 0.00 0.00 85 1009.9
20260508061558 39 109 0.0 1.0 0.00 0.00 0.00 83 1010.1
20260508061055 39 109 2.0 2.0 0.00 0.00 0.00 83 1010.0
20260508060551 39 109 1.0 1.0 0.00 0.00 0.00 83 1010.1
20260508060049 39 109 0.0 0.0 0.00 0.00 0.00 83 1010.1
20260508055544 39 109 0.0 0.0 0.00 0.00 0.00 84 1010.2
20260508055041 40 109 0.0 0.0 0.00 0.00 0.00 81 1010.3
20260508054537 39 110 2.0 2.0 0.00 0.00 0.00 80 1010.2
20260508054035 39 109 0.0 0.0 0.00 0.00 0.00 81 1010.3
20260508053531 39 109 0.0 0.0 0.00 0.00 0.00 81 1010.3
20260508053030 39 109 0.0 0.0 0.00 0.00 0.00 81 1010.5
20260508052527 40 125 0.0 0.0 0.00 0.00 0.00 77 1010.4
20260508052024 39 125 0.0 0.0 0.00 0.00 0.00 79 1010.5
20260508051520 39 125 0.0 0.0 0.00 0.00 0.00 80 1010.4
20260508051015 40 125 0.0 0.0 0.00 0.00 0.00 80 1010.5
20260508050512 39 125 1.0 1.0 0.00 0.00 0.00 78 1010.3
20260508050009 39 125 1.0 1.0 0.00 0.00 0.00 79 1010.3
20260508045505 39 125 1.0 1.0 0.00 0.00 0.00 78 1010.3
20260508045003 40 124 0.0 1.0 0.00 0.00 0.00 77 1010.7
20260508044500 40 136 0.0 0.0 0.00 0.00 0.00 76 1010.6
20260508043955 40 135 1.0 2.0 0.00 0.00 0.00 79 1010.6
20260508043453 40 140 1.0 1.0 0.00 0.00 0.00 77 1010.6
20260508042949 40 91 0.0 0.0 0.00 0.00 0.00 85 1010.5
20260508042447 39 90 0.0 0.0 0.00 0.00 0.00 84 1010.6
20260508041944 39 90 0.0 0.0 0.00 0.00 0.00 82 1010.3
20260508041440 39 90 0.0 0.0 0.00 0.00 0.00 80 1010.3
20260508040937 39 90 0.0 0.0 0.00 0.00 0.00 79 1010.3
20260508040434 40 90 0.0 0.0 0.00 0.00 0.00 77 1010.2
20260508035932 40 90 0.0 0.0 0.00 0.02 0.02 75 1010.2
20260508035428 41 90 0.0 0.0 0.00 0.02 0.02 71 1010.2
20260508034925 41 90 0.0 0.0 0.00 0.02 0.02 70 1010.1
20260508034423 41 90 0.0 0.0 0.00 0.02 0.02 70 1010.4
20260508033919 41 90 0.0 0.0 0.00 0.02 0.02 71 1010.4
20260508033418 41 90 0.0 0.0 0.00 0.02 0.02 70 1010.3
20260508032915 41 90 0.0 0.0 0.00 0.02 0.02 73 1010.1
20260508032412 40 90 0.0 0.0 0.00 0.02 0.02 77 1010.2
20260508031909 39 90 0.0 0.0 0.00 0.02 0.02 79 1010.1
20260508031406 40 90 0.0 0.0 0.00 0.02 0.02 80 1010.2
20260508030901 40 90 0.0 0.0 0.00 0.02 0.02 78 1010.0
20260508030359 40 90 0.0 0.0 0.00 0.02 0.02 72 1009.9
20260508025856 40 90 0.0 0.0 0.00 0.02 0.02 78 1009.8
20260508025352 39 90 0.0 0.0 0.00 0.02 0.02 76 1009.8
20260508024849 39 90 0.0 0.0 0.00 0.02 0.02 77 1009.9
20260508024346 39 90 0.0 0.0 0.00 0.02 0.02 78 1009.9
20260508023843 39 90 0.0 0.0 0.00 0.02 0.02 77 1009.9
20260508023340 39 90 0.0 0.0 0.00 0.02 0.02 75 1009.8
20260508022837 39 90 0.0 0.0 0.00 0.02 0.02 74 1009.8
20260508022332 39 90 0.0 0.0 0.00 0.02 0.02 75 1009.9
20260508021830 39 90 0.0 0.0 0.00 0.02 0.02 75 1009.8
20260508021325 39 90 1.0 1.0 0.00 0.02 0.02 75 1009.8
20260508020821 39 90 1.0 1.0 0.00 0.02 0.02 76 1009.8
20260508020320 40 90 0.0 0.0 0.00 0.02 0.02 74 1009.9
20260508015816 40 90 0.0 0.0 0.00 0.02 0.02 72 1009.7
20260508015314 40 90 0.0 0.0 0.00 0.02 0.02 74 1009.7
20260508014811 39 90 0.0 0.0 0.00 0.02 0.02 75 1009.8
20260508014308 40 90 0.0 0.0 0.00 0.02 0.02 75 1009.8
20260508013803 40 90 0.0 0.0 0.00 0.02 0.02 74 1009.6
20260508013259 40 90 0.0 0.0 0.00 0.02 0.02 74 1009.5
20260508012757 41 90 0.0 0.0 0.00 0.02 0.02 72 1009.4
20260508012254 41 90 0.0 0.0 0.00 0.02 0.02 72 1009.6
20260508011752 42 90 0.0 0.0 0.00 0.02 0.02 68 1009.5
20260508011249 42 91 1.0 1.0 0.00 0.02 0.02 67 1009.6
20260508010746 43 90 0.0 0.0 0.00 0.02 0.02 68 1009.6
20260508010244 43 90 1.0 1.0 0.00 0.02 0.02 64 1009.6
20260508005741 44 90 1.0 1.0 0.00 0.02 0.02 64 1009.6
20260508005237 44 88 1.0 1.0 0.00 0.02 0.02 61 1009.5
20260508004733 44 92 1.0 1.0 0.00 0.02 0.02 62 1009.5
20260508004229 44 18 1.0 1.0 0.00 0.02 0.02 60 1009.3
20260508003726 45 54 1.0 1.0 0.00 0.02 0.02 59 1009.4
20260508003224 46 41 2.0 2.0 0.00 0.02 0.02 58 1009.3
20260508002720 46 32 2.0 3.0 0.00 0.02 0.02 58 1009.1
20260508002218 47 25 5.0 6.0 0.00 0.02 0.02 56 1009.1
20260508001713 47 41 3.0 3.0 0.00 0.02 0.02 56 1008.9
20260508001209 48 14 2.0 2.0 0.00 0.02 0.02 56 1008.8
20260508000705 48 15 4.0 4.0 0.00 0.02 0.02 55 1008.9
20260508000204 48 8 2.0 2.0 0.00 0.02 0.02 55 1008.9
20260507235659 48 6 3.0 3.0 0.00 0.02 0.02 54 1009.0
20260507235156 49 349 2.0 3.0 0.00 0.02 0.02 56 1008.9
20260507234653 49 62 1.0 1.0 0.00 0.02 0.02 56 1008.7
20260507234150 49 61 1.0 1.0 0.00 0.02 0.02 54 1008.7
20260507233647 50 26 2.0 3.0 0.00 0.02 0.02 53 1008.7
20260507233145 49 327 2.0 2.0 0.00 0.02 0.02 52 1008.5
20260507232641 49 17 3.0 3.0 0.00 0.02 0.02 55 1008.7
20260507232138 50 11 1.0 2.0 0.00 0.02 0.02 54 1008.9
20260507231635 50 348 4.0 4.0 0.00 0.02 0.02 51 1008.9
20260507231132 51 7 2.0 3.0 0.00 0.02 0.02 49 1008.7
20260507230628 51 311 2.0 2.0 0.00 0.02 0.02 50 1008.7
20260507230126 51 324 6.0 8.0 0.00 0.02 0.02 51 1008.6
20260507225626 51 9 5.0 6.0 0.00 0.02 0.02 51 1008.9
20260507225122 51 19 3.0 4.0 0.00 0.02 0.02 52 1008.6
20260507224618 52 3 8.0 9.0 0.00 0.02 0.02 49 1008.7
20260507224115 52 284 5.0 6.0 0.00 0.02 0.02 48 1008.7
20260507223611 52 7 7.0 7.0 0.00 0.02 0.02 47 1008.7
20260507223108 51 299 4.0 6.0 0.00 0.02 0.02 49 1008.8
20260507222605 51 15 1.0 1.0 0.00 0.02 0.02 48 1008.7
20260507222101 52 331 4.0 6.0 0.00 0.02 0.02 48 1008.6
20260507221558 52 6 8.0 10.0 0.00 0.02 0.02 50 1008.8
20260507221054 53 350 8.0 10.0 0.00 0.02 0.02 46 1008.8
20260507220552 53 3 5.0 6.0 0.00 0.02 0.02 47 1008.7
20260507220049 52 4 5.0 6.0 0.00 0.02 0.02 50 1008.5
20260507215545 51 328 4.0 6.0 0.00 0.02 0.02 51 1008.7
20260507215043 53 316 7.0 8.0 0.00 0.02 0.02 48 1008.7
20260507214540 53 336 3.0 4.0 0.00 0.02 0.02 52 1008.8
20260507214036 53 22 3.0 6.0 0.00 0.02 0.02 53 1008.7
20260507213532 51 347 4.0 4.0 0.00 0.02 0.02 53 1008.7
20260507213030 51 20 8.0 9.0 0.00 0.02 0.02 50 1008.9
20260507212526 52 350 5.0 7.0 0.00 0.02 0.02 49 1008.9
20260507212023 51 356 11.0 13.0 0.00 0.02 0.02 49 1008.9
20260507211519 51 19 9.0 11.0 0.00 0.02 0.02 51 1009.0
20260507211015 52 9 7.0 7.0 0.00 0.02 0.02 52 1008.8
20260507210513 51 351 5.0 8.0 0.00 0.02 0.02 53 1008.9
20260507210010 51 285 7.0 9.0 0.00 0.02 0.02 51 1009.0
20260507205506 51 4 4.0 4.0 0.00 0.02 0.02 52 1008.9
20260507205002 53 275 5.0 7.0 0.00 0.02 0.02 51 1008.9
20260507204458 53 316 11.0 13.0 0.00 0.02 0.02 50 1008.7
20260507203956 53 329 6.0 9.0 0.00 0.02 0.02 53 1008.9
20260507203454 53 333 5.0 7.0 0.00 0.02 0.02 51 1009.0
20260507202950 53 339 4.0 6.0 0.00 0.02 0.02 59 1008.8
20260507202447 52 352 6.0 6.0 0.00 0.02 0.02 48 1009.0
20260507201943 51 7 11.0 14.0 0.00 0.02 0.02 49 1009.0
20260507201438 51 354 4.0 4.0 0.00 0.02 0.02 49 1009.0
20260507200935 51 339 3.0 4.0 0.00 0.02 0.02 52 1008.8
20260507200431 51 27 5.0 7.0 0.00 0.02 0.02 49 1009.1
20260507195927 51 338 5.0 7.0 0.00 0.02 0.02 48 1009.3
20260507195425 52 34 8.0 9.0 0.00 0.02 0.02 47 1008.8
20260507194922 53 329 8.0 9.0 0.00 0.02 0.02 45 1009.1
20260507194418 53 329 3.0 4.0 0.00 0.02 0.02 48 1009.1
20260507193914 53 343 10.0 14.0 0.00 0.02 0.02 47 1009.3
20260507193412 52 317 3.0 3.0 0.00 0.02 0.02 52 1009.3
20260507192908 52 352 9.0 10.0 0.00 0.02 0.02 47 1009.4
20260507192404 51 19 4.0 4.0 0.00 0.02 0.02 52 1009.6
20260507191901 51 353 5.0 7.0 0.00 0.02 0.02 51 1009.6
20260507191357 50 10 12.0 17.0 0.00 0.02 0.02 52 1009.4
20260507190854 51 16 8.0 10.0 0.00 0.02 0.02 53 1009.7
20260507190352 51 312 7.0 9.0 0.00 0.02 0.02 47 1009.7
20260507185851 51 16 4.0 4.0 0.00 0.02 0.02 52 1009.7
20260507185347 52 303 6.0 8.0 0.00 0.02 0.02 50 1009.8
20260507184844 53 313 8.0 13.0 0.00 0.02 0.02 48 1009.7
20260507184342 53 284 8.0 10.0 0.00 0.02 0.02 49 1009.7
20260507183839 54 350 9.0 11.0 0.00 0.02 0.02 49 1010.0
20260507183336 53 281 8.0 10.0 0.00 0.02 0.02 50 1009.6
20260507182834 52 0 4.0 6.0 0.00 0.02 0.02 51 1009.9
20260507182329 52 259 6.0 8.0 0.00 0.02 0.02 50 1009.7
20260507181826 52 4 7.0 9.0 0.00 0.02 0.02 54 1009.9
20260507181322 52 306 4.0 4.0 0.00 0.02 0.02 51 1009.9
20260507180819 53 261 3.0 3.0 0.00 0.02 0.02 49 1009.9
20260507180316 51 1 5.0 7.0 0.00 0.02 0.02 53 1009.9
20260507175811 51 345 10.0 13.0 0.00 0.02 0.02 49 1010.1
20260507175308 50 332 6.0 8.0 0.00 0.02 0.02 53 1010.1
20260507174805 50 333 5.0 8.0 0.00 0.02 0.02 50 1010.1
20260507174303 50 351 8.0 11.0 0.00 0.02 0.02 47 1010.1
20260507173800 50 328 4.0 6.0 0.00 0.02 0.02 53 1010.2
20260507173258 50 328 8.0 9.0 0.00 0.02 0.02 50 1010.1
20260507172754 50 333 7.0 9.0 0.00 0.02 0.02 50 1010.1
20260507172251 50 317 10.0 13.0 0.00 0.02 0.02 50 1010.2
20260507171746 51 342 6.0 8.0 0.00 0.02 0.02 48 1010.0
20260507171243 51 323 3.0 4.0 0.00 0.02 0.02 48 1010.0
20260507170740 51 246 4.0 4.0 0.00 0.02 0.02 52 1010.1
20260507170237 51 2 6.0 7.0 0.00 0.02 0.02 53 1010.2
20260507165732 50 291 3.0 3.0 0.00 0.02 0.02 56 1010.4
20260507165229 50 8 4.0 6.0 0.00 0.02 0.02 55 1010.2
20260507164726 50 13 6.0 7.0 0.00 0.02 0.02 53 1010.4
20260507164223 50 313 3.0 4.0 0.00 0.02 0.02 53 1010.3
20260507163719 50 22 5.0 6.0 0.00 0.02 0.02 54 1010.3
20260507163218 50 10 9.0 14.0 0.00 0.02 0.02 54 1010.5
20260507162713 50 16 5.0 6.0 0.00 0.02 0.02 55 1010.6
20260507162209 49 304 5.0 7.0 0.00 0.02 0.02 52 1010.6
20260507161706 49 328 4.0 4.0 0.00 0.02 0.02 51 1010.5
20260507161203 49 279 4.0 4.0 0.00 0.02 0.02 52 1010.6
20260507160658 50 6 8.0 11.0 0.00 0.02 0.02 50 1010.4
20260507160155 50 324 6.0 7.0 0.00 0.02 0.02 49 1010.7
20260507155651 51 337 9.0 9.0 0.00 0.02 0.02 51 1010.9
20260507155148 51 290 9.0 9.0 0.00 0.02 0.02 51 1010.9
20260507154644 50 113 2.0 6.0 0.00 0.02 0.02 49 1010.7
20260507154142 50 4 6.0 7.0 0.00 0.02 0.02 54 1011.2
20260507153638 51 329 3.0 4.0 0.00 0.02 0.02 52 1010.8
20260507153135 50 299 6.0 8.0 0.00 0.02 0.02 56 1011.1
20260507152631 50 274 3.0 4.0 0.00 0.02 0.02 53 1011.1
20260507152127 50 342 4.0 6.0 0.00 0.02 0.02 50 1011.0
20260507151623 50 250 1.0 2.0 0.00 0.02 0.02 51 1010.8
20260507151121 50 189 3.0 3.0 0.00 0.02 0.02 53 1011.1
20260507150618 50 274 5.0 6.0 0.00 0.02 0.02 51 1011.2
20260507150114 49 356 5.0 7.0 0.00 0.02 0.02 52 1011.0
20260507145614 48 355 2.0 2.0 0.00 0.02 0.02 55 1011.3
20260507145113 48 39 0.0 1.0 0.00 0.02 0.02 52 1011.3
20260507144613 48 31 5.0 7.0 0.00 0.02 0.02 53 1011.3
20260507144112 48 26 8.0 10.0 0.00 0.02 0.02 51 1011.5
20260507143608 48 350 4.0 4.0 0.00 0.02 0.02 52 1011.4
20260507143106 48 357 3.0 3.0 0.00 0.02 0.02 51 1011.3
20260507142601 47 20 4.0 4.0 0.00 0.02 0.02 52 1011.3
20260507142058 47 38 4.0 4.0 0.00 0.02 0.02 52 1011.5
20260507141554 47 355 5.0 7.0 0.00 0.02 0.02 51 1011.4
20260507141051 47 6 3.0 4.0 0.00 0.02 0.02 55 1011.4
20260507140548 47 358 2.0 2.0 0.00 0.02 0.02 52 1011.6
20260507140045 47 345 4.0 6.0 0.00 0.02 0.02 60 1011.5
20260507135542 47 316 7.0 10.0 0.00 0.02 0.02 56 1011.8
20260507135039 46 272 3.0 4.0 0.00 0.02 0.02 61 1011.6
20260507134536 46 323 2.0 3.0 0.00 0.02 0.02 57 1011.8
20260507134031 46 313 6.0 8.0 0.00 0.02 0.02 57 1011.8
20260507133528 46 353 2.0 3.0 0.00 0.02 0.02 62 1011.9
20260507133026 45 264 3.0 4.0 0.00 0.02 0.02 58 1011.9
20260507132522 46 294 6.0 7.0 0.00 0.02 0.02 61 1011.8
20260507132019 46 41 0.0 0.0 0.00 0.02 0.02 63 1011.5
20260507131516 45 59 0.0 0.0 0.00 0.02 0.02 66 1011.6
20260507131013 44 57 0.0 1.0 0.00 0.02 0.02 64 1011.6
20260507130510 44 357 4.0 6.0 0.00 0.02 0.02 66 1011.6
20260507130008 44 12 2.0 2.0 0.00 0.02 0.02 68 1011.8
20260507125506 43 18 3.0 4.0 0.00 0.02 0.02 71 1011.6
20260507125003 43 12 1.0 2.0 0.00 0.02 0.02 69 1011.8
20260507124459 42 12 4.0 4.0 0.00 0.02 0.02 72 1012.0
20260507123957 42 359 5.0 6.0 0.00 0.02 0.02 71 1012.0
20260507123455 42 13 1.0 1.0 0.00 0.02 0.02 72 1011.9
20260507122951 42 352 0.0 1.0 0.00 0.02 0.02 74 1011.9
20260507122447 42 4 5.0 6.0 0.00 0.02 0.02 73 1012.0
20260507121943 41 273 1.0 2.0 0.00 0.02 0.02 75 1012.0
20260507121438 41 287 4.0 4.0 0.00 0.02 0.02 72 1012.0
20260507120935 41 341 2.0 3.0 0.00 0.02 0.02 76 1012.0
20260507120431 40 270 2.0 3.0 0.00 0.02 0.02 75 1011.6
20260507115928 40 297 3.0 3.0 0.00 0.02 0.02 79 1011.8
20260507115424 40 271 1.0 1.0 0.00 0.02 0.02 81 1011.6
20260507114919 40 3 0.0 0.0 0.00 0.02 0.02 83 1011.6
20260507114417 39 17 2.0 2.0 0.00 0.02 0.02 84 1011.6
20260507113914 39 317 3.0 3.0 0.00 0.02 0.02 86 1011.4
20260507113411 38 36 1.0 1.0 0.00 0.02 0.02 90 1011.5
20260507112908 37 48 1.0 1.0 0.00 0.02 0.02 94 1011.5
20260507112406 36 7 1.0 1.0 0.00 0.02 0.02 97 1011.5
20260507111904 35 51 0.0 0.0 0.00 0.02 0.02 97 1011.6
20260507111400 35 51 0.0 0.0 0.00 0.02 0.02 97 1011.5
20260507110856 35 51 0.0 0.0 0.00 0.02 0.02 97 1011.4
20260507110352 35 51 0.0 1.0 0.00 0.02 0.02 98 1011.3
20260507105849 35 51 1.0 1.0 0.00 0.02 0.02 98 1011.3
20260507105345 34 51 0.0 0.0 0.00 0.02 0.02 98 1011.4
20260507104842 34 51 0.0 1.0 0.00 0.02 0.02 98 1011.3
20260507104339 33 51 0.0 0.0 0.00 0.02 0.02 98 1011.5
20260507103835 33 51 1.0 1.0 0.00 0.02 0.02 97 1011.4
20260507103332 32 51 0.0 0.0 0.00 0.02 0.02 96 1011.3
20260507102828 33 51 0.0 0.0 0.00 0.02 0.02 96 1011.3
20260507102325 33 51 0.0 0.0 0.00 0.02 0.02 96 1011.1
20260507101822 33 51 0.0 0.0 0.00 0.02 0.02 95 1011.1
20260507101321 34 51 1.0 1.0 0.00 0.02 0.02 95 1011.0
20260507100819 34 51 0.0 1.0 0.00 0.02 0.02 95 1011.0
20260507100317 34 51 0.0 0.0 0.00 0.02 0.02 93 1011.0
20260507095815 35 50 0.0 0.0 0.00 0.02 0.02 91 1010.9
20260507095311 36 50 0.0 0.0 0.00 0.02 0.02 89 1011.0
20260507094808 36 58 1.0 1.0 0.00 0.02 0.02 89 1011.0
20260507094305 36 52 1.0 2.0 0.00 0.02 0.02 89 1011.0
20260507093802 36 27 2.0 2.0 0.00 0.02 0.02 88 1010.9
20260507093300 36 28 1.0 1.0 0.00 0.02 0.02 88 1011.1
20260507092758 36 36 2.0 2.0 0.00 0.02 0.02 88 1011.2
20260507092254 37 23 3.0 3.0 0.00 0.02 0.02 88 1011.2
20260507091750 37 28 3.0 3.0 0.00 0.02 0.02 87 1011.0
20260507091247 37 17 3.0 4.0 0.00 0.02 0.02 88 1011.2
20260507090747 37 28 3.0 3.0 0.00 0.02 0.02 88 1011.2
20260507090244 37 346 5.0 6.0 0.00 0.02 0.02 88 1011.2
20260507085741 37 21 1.0 2.0 0.00 0.02 0.02 87 1011.1
20260507085238 37 16 2.0 3.0 0.00 0.02 0.02 88 1011.2
20260507084735 37 17 1.0 1.0 0.00 0.02 0.02 89 1011.1
20260507084232 37 6 1.0 1.0 0.00 0.02 0.02 90 1011.3
20260507083729 37 6 1.0 1.0 0.00 0.02 0.02 91 1011.2
20260507083226 37 356 1.0 1.0 0.00 0.02 0.02 92 1011.1
20260507082722 37 356 0.0 0.0 0.00 0.02 0.02 90 1011.2
20260507082218 38 356 0.0 0.0 0.00 0.02 0.02 89 1011.1
20260507081715 38 356 0.0 1.0 0.00 0.02 0.02 86 1011.3
20260507081211 39 354 2.0 2.0 0.00 0.02 0.02 85 1011.2